Location: Le Domaine
(47.0333°N, 76.5361°W)
Time: 16:57:03
(UTC-05:00)

S-56A Canister/Altair - Pass Details

Date: 25 November 2019
Orbit: 633 x 2499 km, 38.9° (Epoch: 07 December)

Event Time Altitude Azimuth Distance (km) Brightness Sun altitude
Rises 14:57:05 0° 231° (SW) 5,994 14.2 10.5°
Reaches altitude 10° 15:01:33 10° 226° (SW) 4,813 15.9 10.0°
Maximum altitude 15:13:19 42° 162° (SSE) 2,383 10.4 8.6°
Drops below altitude 10° 15:21:40 10° 96° (E) 3,442 10.5 7.5°
Sets 15:24:18 0° 89° (E) 4,183 10.8 7.2°
